When you browse on this site, cookies collect data to enhance your experience and personalize the content and advertising you see.
Visit our Privacy Policy to learn more. By continuing to use the site, you agree to this use of cookies and data.
  • In Hungary
  • List of Countries
  • For 7 days
  • Water Temperature
  • Satellite Maps
  • Weather Map
  • News
  • Weather Widgets
  • user-avatar
    Login

    Hourly Weather Klenovyy

    Today, 23 July, Tuesday

    Time Temperature Precipitation Wind Pressure Humidity
    00:00 +22°C° 0 mm 1 mps 736 mmHg 50%
    01:00 +21°C° 0 mm 1 mps 736 mmHg 51%
    02:00 +21°C° 0 mm 1 mps 736 mmHg 53%
    03:00 +20°C° 0 mm 2 mps 735 mmHg 58%
    04:00 +20°C° 0 mm 2 mps 735 mmHg 59%
    05:00 +21°C° 0 mm 1 mps 735 mmHg 60%
    06:00 +21°C° 0 mm 1 mps 735 mmHg 61%
    07:00 +23°C° 0 mm 2 mps 735 mmHg 55%
    08:00 +26°C° 0 mm 2 mps 735 mmHg 48%
    09:00 +28°C° 0 mm 2 mps 735 mmHg 42%
    10:00 +29°C° 0 mm 2 mps 735 mmHg 38%
    11:00 +30°C° 0 mm 2 mps 735 mmHg 33%
    12:00 +31°C° 0 mm 2 mps 735 mmHg 28%
    13:00 +31°C° 0 mm 2 mps 734 mmHg 30%
    14:00 +31°C° 0 mm 2 mps 734 mmHg 31%
    15:00 +31°C° 0 mm 2 mps 734 mmHg 32%
    16:00 +30°C° 0 mm 2 mps 734 mmHg 35%
    17:00 +29°C° 0 mm 2 mps 734 mmHg 39%
    18:00 +29°C° 0 mm 2 mps 734 mmHg 42%
    19:00 +28°C° 0 mm 2 mps 733 mmHg 44%
    20:00 +26°C° 0 mm 2 mps 733 mmHg 46%
    21:00 +25°C° 0 mm 1 mps 733 mmHg 48%
    22:00 +24°C° 0 mm 2 mps 733 mmHg 53%
    23:00 +24°C° 0 mm 3 mps 733 mmHg 58%

    Tomorrow, 24 July, Wednesday

    Time Temperature Precipitation Wind Pressure Humidity
    00:00 +22°C° 0 mm 3 mps 733 mmHg 63%
    01:00 +21°C° 0 mm 3 mps 732 mmHg 67%
    02:00 +20°C° 0 mm 3 mps 732 mmHg 70%
    03:00 +19°C° 0 mm 3 mps 732 mmHg 74%
    04:00 +19°C° 0.4 mm 3 mps 732 mmHg 76%
    05:00 +19°C° 0.4 mm 3 mps 732 mmHg 79%
    06:00 +19°C° 0.4 mm 3 mps 732 mmHg 81%
    07:00 +20°C° 0.3 mm 3 mps 732 mmHg 76%
    08:00 +21°C° 0.3 mm 3 mps 732 mmHg 71%
    09:00 +24°C° 0.3 mm 3 mps 732 mmHg 66%
    10:00 +25°C° 0.4 mm 3 mps 732 mmHg 62%
    11:00 +26°C° 0.4 mm 3 mps 732 mmHg 57%
    12:00 +27°C° 0.4 mm 3 mps 732 mmHg 52%
    13:00 +27°C° 0.7 mm 3 mps 732 mmHg 52%
    14:00 +27°C° 0.7 mm 2 mps 732 mmHg 52%
    15:00 +28°C° 0.7 mm 2 mps 732 mmHg 52%
    16:00 +27°C° 0.6 mm 2 mps 732 mmHg 55%
    17:00 +27°C° 0.6 mm 2 mps 732 mmHg 57%
    18:00 +27°C° 0.6 mm 2 mps 732 mmHg 60%
    19:00 +25°C° 0.9 mm 2 mps 731 mmHg 66%
    20:00 +24°C° 0.9 mm 1 mps 731 mmHg 73%
    21:00 +22°C° 0.9 mm 1 mps 731 mmHg 80%
    22:00 +22°C° 0.7 mm 1 mps 731 mmHg 82%
    23:00 +21°C° 0.7 mm 1 mps 731 mmHg 85%

    Day after tomorrow, 25 July, Thursday

    Time Temperature Precipitation Wind Pressure Humidity
    00:00 +19°C° 0.7 mm 2 mps 732 mmHg 88%
    01:00 +20°C° 0.2 mm 1 mps 731 mmHg 89%
    02:00 +20°C° 0.2 mm 1 mps 731 mmHg 89%
    03:00 +20°C° 0.2 mm 1 mps 731 mmHg 90%
    04:00 +20°C° 0 mm 1 mps 731 mmHg 89%
    05:00 +20°C° 0 mm 1 mps 731 mmHg 88%
    06:00 +20°C° 0 mm 1 mps 731 mmHg 88%
    07:00 +21°C° 0.1 mm 1 mps 731 mmHg 82%
    08:00 +23°C° 0.1 mm 1 mps 731 mmHg 77%
    09:00 +24°C° 0.1 mm 2 mps 731 mmHg 72%
    10:00 +25°C° 0.6 mm 2 mps 732 mmHg 65%
    11:00 +26°C° 0.6 mm 2 mps 732 mmHg 58%
    12:00 +27°C° 0.6 mm 2 mps 732 mmHg 52%
    13:00 +28°C° 0 mm 2 mps 732 mmHg 49%
    14:00 +28°C° 0 mm 3 mps 731 mmHg 45%
    15:00 +29°C° 0 mm 3 mps 731 mmHg 42%
    16:00 +28°C° 0 mm 3 mps 731 mmHg 44%
    17:00 +28°C° 0 mm 2 mps 731 mmHg 47%
    18:00 +27°C° 0 mm 2 mps 731 mmHg 49%
    19:00 +26°C° 0 mm 2 mps 731 mmHg 54%
    20:00 +24°C° 0 mm 2 mps 731 mmHg 59%
    21:00 +23°C° 0 mm 2 mps 731 mmHg 64%
    22:00 +21°C° 0 mm 2 mps 731 mmHg 67%
    23:00 +20°C° 0 mm 2 mps 731 mmHg 70%

    26 July, Friday

    Time Temperature Precipitation Wind Pressure Humidity
    00:00 +20°C° 0 mm 2 mps 731 mmHg 72%
    01:00 +19°C° 0 mm 2 mps 731 mmHg 74%
    02:00 +19°C° 0 mm 2 mps 731 mmHg 76%
    03:00 +18°C° 0 mm 2 mps 731 mmHg 77%
    04:00 +18°C° 0 mm 2 mps 731 mmHg 79%
    05:00 +18°C° 0 mm 2 mps 731 mmHg 81%
    06:00 +18°C° 0 mm 2 mps 731 mmHg 82%
    07:00 +20°C° 0 mm 2 mps 731 mmHg 76%
    08:00 +21°C° 0 mm 3 mps 731 mmHg 70%
    09:00 +24°C° 0 mm 3 mps 731 mmHg 64%
    10:00 +25°C° 0.3 mm 3 mps 731 mmHg 59%
    11:00 +26°C° 0.3 mm 3 mps 731 mmHg 54%
    12:00 +27°C° 0.3 mm 4 mps 731 mmHg 50%
    13:00 +27°C° 0.2 mm 4 mps 731 mmHg 49%
    14:00 +28°C° 0.2 mm 4 mps 731 mmHg 48%
    15:00 +28°C° 0.2 mm 4 mps 731 mmHg 47%
    16:00 +27°C° 0 mm 4 mps 731 mmHg 50%
    17:00 +27°C° 0 mm 4 mps 731 mmHg 52%
    18:00 +26°C° 0 mm 4 mps 731 mmHg 55%
    19:00 +25°C° 0 mm 3 mps 731 mmHg 58%
    20:00 +22°C° 0 mm 3 mps 731 mmHg 61%
    21:00 +21°C° 0 mm 3 mps 731 mmHg 64%
    22:00 +20°C° 0 mm 2 mps 731 mmHg 64%
    23:00 +20°C° 0 mm 2 mps 731 mmHg 64%

    27 July, Saturday

    Time Temperature Precipitation Wind Pressure Humidity
    00:00 +19°C° 0 mm 2 mps 731 mmHg 65%
    01:00 +19°C° 0 mm 2 mps 731 mmHg 66%
    02:00 +19°C° 0 mm 2 mps 731 mmHg 67%
    03:00 +18°C° 0 mm 2 mps 731 mmHg 69%
    04:00 +19°C° 0 mm 2 mps 731 mmHg 70%
    05:00 +20°C° 0 mm 1 mps 731 mmHg 71%
    06:00 +20°C° 0 mm 1 mps 731 mmHg 73%
    07:00 +21°C° 0 mm 2 mps 731 mmHg 66%
    08:00 +23°C° 0 mm 2 mps 731 mmHg 60%
    09:00 +25°C° 0 mm 2 mps 731 mmHg 53%
    10:00 +26°C° 0 mm 3 mps 731 mmHg 49%
    11:00 +28°C° 0 mm 3 mps 731 mmHg 45%
    12:00 +29°C° 0 mm 4 mps 731 mmHg 42%
    13:00 +29°C° 0 mm 3 mps 731 mmHg 43%
    14:00 +28°C° 0 mm 3 mps 730 mmHg 43%
    15:00 +28°C° 0 mm 3 mps 730 mmHg 44%
    16:00 +28°C° 0 mm 3 mps 730 mmHg 46%
    17:00 +27°C° 0 mm 3 mps 730 mmHg 48%
    18:00 +27°C° 0 mm 3 mps 730 mmHg 49%
    19:00 +26°C° 0 mm 2 mps 729 mmHg 52%
    20:00 +24°C° 0 mm 1 mps 729 mmHg 55%
    21:00 +21°C° 0 mm 0 mps 729 mmHg 58%
    22:00 +22°C° 0.1 mm 1 mps 729 mmHg 61%
    23:00 +22°C° 0.1 mm 1 mps 729 mmHg 64%

    28 July, Sunday

    Time Temperature Precipitation Wind Pressure Humidity
    00:00 +21°C° 0.1 mm 1 mps 729 mmHg 67%
    01:00 +21°C° 0 mm 1 mps 729 mmHg 69%
    02:00 +21°C° 0 mm 1 mps 728 mmHg 71%
    03:00 +20°C° 0 mm 1 mps 728 mmHg 72%
    04:00 +20°C° 0 mm 1 mps 728 mmHg 73%
    05:00 +21°C° 0 mm 1 mps 728 mmHg 73%
    06:00 +21°C° 0 mm 1 mps 728 mmHg 74%
    07:00 +22°C° 0 mm 1 mps 728 mmHg 68%
    08:00 +24°C° 0 mm 1 mps 728 mmHg 62%
    09:00 +25°C° 0 mm 2 mps 728 mmHg 57%
    10:00 +27°C° 0 mm 2 mps 728 mmHg 53%
    11:00 +28°C° 0 mm 2 mps 728 mmHg 50%
    12:00 +29°C° 0 mm 3 mps 728 mmHg 47%
    13:00 +29°C° 0.1 mm 3 mps 727 mmHg 47%
    14:00 +29°C° 0.1 mm 3 mps 727 mmHg 47%
    15:00 +29°C° 0.1 mm 4 mps 727 mmHg 47%
    16:00 +29°C° 0 mm 3 mps 726 mmHg 48%
    17:00 +29°C° 0 mm 3 mps 726 mmHg 48%
    18:00 +29°C° 0 mm 3 mps 726 mmHg 48%
    19:00 +27°C° 0 mm 3 mps 726 mmHg 52%
    20:00 +26°C° 0 mm 2 mps 726 mmHg 56%
    21:00 +24°C° 0 mm 2 mps 726 mmHg 60%
    22:00 +23°C° 0.1 mm 2 mps 726 mmHg 65%
    23:00 +21°C° 0.1 mm 2 mps 726 mmHg 71%
    Show more